Regional Weather Roundup
Issued by NWS

Home | Current Version | Previous Version | Graphics & Text | Print | Product List | Glossary On
Versions: 1 2 3 4 5 6 7 8 9 10 11 12 13 14 15 16 17 18 19 20 21 22 23 24 25 26 27 28 29 30 31 32 33 34 35 36 37 38 39 40 41 42 43 44 45 46 47 48 49 50
000
ASUS43 KIND 172109
RWRIN

WEATHER ROUNDUP FOR INDIANA
NATIONAL WEATHER SERVICE INDIANAPOLIS IN
400 PM EST FRI NOV 17 2017

NOTE: "FAIR" INDICATES FEW OR NO CLOUDS BELOW 12,000 FEET WITH NO
SIGNIFICANT WEATHER AND/OR OBSTRUCTIONS TO VISIBILITY.

* - STATION DOES NOT REPORT WEATHER SUCH AS PRECIPITATION OR FOG.

+ - STATION NOT QUALITY CONTROLLED BY THE NATIONAL WEATHER SERVICE.
    USE DATA WITH CAUTION...ESPECIALLY DEWPOINT AND RELATIVE
    HUMIDITY OBSERVATIONS.

INZ001>003-010>013-019-020-172200-
NORTHWEST INDIANA

CITY           SKY/WX    TMP DP  RH WIND       PRES   REMARKS
GARY /AIRPORT/ CLOUDY    46  32  57 S10G23    29.86F
KNOX *+        CLOUDY    45  34  65 S17       29.89F
LA PORTE +     CLOUDY    44  33  64 S14G20    29.88F
MICHIGAN CITY+ CLOUDY    45  32  61 S12G20    29.87F
MONTICELLO +   CLOUDY    45  32  59 S12       29.89F
RENSSELAER +   CLOUDY    45  30  57 SE10      29.88F
VALPARAISO     CLOUDY    46  34  62 S13G20    29.87F

$$

LMZ046-743>745-172200-
SOUTHERN LAKE MICHIGAN

STATION/POSITION TIME  TEMP    WIND        PRES    WAVE
                       AIR SEA DIR/SP/G            HT
                 (UTC) (F)     (DEG/KT/KT) (MB)    (FT)
BURNS HARBOR     2040   45     170/ 13/ 19 1011.5F
MICHIGAN CITY    2040   45     150/ 13/ 15   N/A

$$

INZ004-005-014>016-021>024-172200-
NORTH CENTRAL INDIANA

CITY           SKY/WX    TMP DP  RH WIND       PRES   REMARKS
ELKHART        CLOUDY    45  32  61 SE17G23   29.91F
GOSHEN         CLOUDY    44  32  62 SE14      29.92F
LOGANSPORT +   CLOUDY    45  36  70 E10       29.92F
PERU/GRISSOM   CLOUDY    46  35  63 SE15      29.91F
ROCHESTER +    CLOUDY    46  34  61 SE9       29.92F
SOUTH BEND     CLOUDY    44  34  67 SE13      29.90F
WARSAW +       CLOUDY    43  34  70 SE7       29.93F

$$

INZ006>009-017-018-025>027-172200-
NORTHEAST INDIANA

CITY           SKY/WX    TMP DP  RH WIND       PRES   REMARKS
AUBURN +       CLOUDY    43  32  65 SE6       29.97F
FORT WAYNE     CLOUDY    46  36  68 SE9       29.97F
HUNTINGTON +   CLOUDY    45  33  62 SE7       29.95F
KENDALLVILLE + CLOUDY    43  34  71 S8        29.94F

$$

INZ028-029-035-036-043>045-051>053-172200-
WEST CENTRAL INDIANA

CITY           SKY/WX    TMP DP  RH WIND       PRES   REMARKS
CRAWFORDSVL +  CLOUDY    45  34  65 SE10      29.90F
GREENCASTLE +  CLOUDY    46  32  57 SE8       29.93F
LAFAYETTE      CLOUDY    46  33  60 SE9       29.90F
TERRE HAUTE    CLOUDY    46  35  65 S12       29.92F

$$

INZ030>032-037>040-046>048-054>057-064-065-172200-
CENTRAL INDIANA

CITY           SKY/WX    TMP DP  RH WIND       PRES   REMARKS
ANDERSON       SUNNY     48  32  53 S12G17    29.97F
CP ATTERBURY + CLOUDY    46  32  57 S7        29.98F
COLUMBUS       PTSUNNY   48  28  46 S12       29.98F
FISHERS *+     MOSUNNY   46  36  66 S14       29.94
FRANKFORT +    CLOUDY    48  35  61 S5        29.94S
GREENWOOD *+   CLOUDY    49  35  57 S9        29.96F
INDIANAPOLIS   CLOUDY    47  33  58 SE12      29.94F
-EAGLE CREEK   CLOUDY    47  32  56 SE8       29.93F
KOKOMO +       CLOUDY    46  34  62 SE14      29.93F
MARION +       CLOUDY    46  34  63 S12       29.96F
MT COMFORT *+  CLOUDY    46  36  66 S13G20    29.96F
SHELBYVILLE    MOSUNNY   50  31  48 S10       29.96F
ZIONSVILLE +   CLOUDY    45  32  61 S14       29.94F

$$

INZ033-034-041-042-049-050-058-059-172200-
EAST CENTRAL INDIANA

CITY           SKY/WX    TMP DP  RH WIND       PRES   REMARKS
MUNCIE         MOSUNNY   49  32  52 S7G16     29.96F
RICHMOND +     CLOUDY    45  32  61 SE13      29.98F

$$

INZ060-061-067>069-081>083-085>088-172200-
SOUTHWEST INDIANA

CITY           SKY/WX    TMP DP  RH WIND       PRES   REMARKS
EVANSVILLE     CLOUDY    48  41  76 SE10G18   29.95F HAZE
HUNTINGBURG +  MOSUNNY   50  38  63 SE10      29.98F
WASHINGTON +   CLOUDY    47  35  61 SE15      29.94F

$$

INZ062-063-066-070>080-084-089>092-172200-
SOUTH CENTRAL AND SOUTHEAST INDIANA

CITY           SKY/WX    TMP DP  RH WIND       PRES   REMARKS
BEDFORD +      MOSUNNY   48  32  53 SE8       29.96F
BLOOMINGTON    CLOUDY    47  33  58 S10       29.95F
MADISON *+     CLOUDY    50  32  50 SE6       30.01F
NORTH VERNON + CLOUDY    48  32  53 SE9       29.98F
SEYMOUR +      CLOUDY    50  34  53 S9        29.99F

$$





USA.gov is the U.S. government's official web portal to all federal, state and local government web resources and services.